Waarnemingen

Advertentie
Mijn weer
Besancon, Frankrijk (7288): temperatuur & dauwpunt: 12.12.2017 06:00:00 - 18.12.2017 06:00:00 (CET)Besancon, Frankrijk (7288): temperatuur 5cm: 12.12.2017 06:00:00 - 18.12.2017 06:00:00 (CET)Besancon, Frankrijk (7288): temperatuur -20cm & temperatuur -100cm: 12.12.2017 06:00:00 - 18.12.2017 06:00:00 (CET)Besancon, Frankrijk (7288): windsnelheid & windstoten: 12.12.2017 06:00:00 - 18.12.2017 06:00:00 (CET)Besancon, Frankrijk (7288): windrichting: 12.12.2017 06:00:00 - 18.12.2017 06:00:00 (CET)Besancon, Frankrijk (7288): luchtdruk: 12.12.2017 06:00:00 - 18.12.2017 06:00:00 (CET)Besancon, Frankrijk (7288): zicht: 12.12.2017 06:00:00 - 18.12.2017 06:00:00 (CET)Besancon, Frankrijk (7288): Zonneschijnduur: 12.12.2017 06:00:00 - 18.12.2017 06:00:00 (CET)Besancon, Frankrijk (7288): neerslag: 12.12.2017 06:00:00 - 18.12.2017 06:00:00 (CET)
Datum & Tijd tt [°C] td [°C] tt 5cm [°C] tt -20cm [°C] tt -100cm [°C] ff [km/u] ff [kn] fx [km/u] fx [kn] dd ppp [hPa] vv [km] sd [min] rr [mm]
18.12.2017 06:00:00 0,1 -0,2 0,1 4,9 8,1 6 3 18 10 ZZW 1024,2 2,0 0 1,2
18.12.2017 05:00:00 0,3 -0,3 0,1 5,0 8,2 6 3 21 12 Z 1025,5 - 0 0,6
18.12.2017 04:00:00 0,6 -1,2 0,1 5,0 8,1 9 5 22 12 ZZW 1027,2 - 0 0,0
18.12.2017 03:00:00 0,9 -1,3 0,2 5,0 8,1 10 6 18 10 ZZW 1028,5 - 0 0,0
18.12.2017 02:00:00 0,8 -0,5 0,3 5,0 8,1 4 2 18 10 ZZW 1028,7 - 0 0,0
18.12.2017 01:00:00 0,7 -0,3 -0,3 5,1 8,2 6 3 19 11 ZZW 1029,4 - 0 0,0
18.12.2017 00:00:00 0,7 0,0 -0,3 5,1 8,1 3 1 10 6 Z 1030,1 - 0 0,0
17.12.2017 23:00:00 0,8 0,2 0,1 5,1 8,1 4 2 10 5 ZZW 1030,2 - 0 0,0
17.12.2017 22:00:00 0,9 0,6 -0,4 5,1 8,1 4 2 8 4 ZZW 1030,6 - 0 0,0
17.12.2017 21:00:00 0,7 0,1 -0,1 5,1 8,1 0 0 6 3 N 1030,5 - 0 0,0
17.12.2017 20:00:00 0,6 0,2 -0,1 5,1 8,1 0 0 2 1 N 1030,2 - 0 0,0
17.12.2017 19:00:00 0,6 -0,1 0,1 5,2 8,2 0 0 4 2 N 1030,1 - 0 0,0
17.12.2017 18:00:00 0,7 0,1 -0,3 5,2 8,2 0 0 6 4 N 1030,1 - 0 0,0
17.12.2017 17:00:00 1,0 0,4 0,7 5,1 8,2 3 2 11 6 W 1029,3 4,0 0 0,2
17.12.2017 16:00:00 1,5 0,5 1,5 5,1 8,2 4 2 11 6 WNW 1028,3 - 0 0,0
17.12.2017 15:00:00 1,8 0,6 1,8 5,1 8,1 4 2 8 4 W 1027,7 - 0 0,0
17.12.2017 14:00:00 1,8 0,5 2,1 5,1 8,2 5 3 13 7 ZW 1027,5 - 0 0,0
17.12.2017 13:00:00 1,5 0,8 1,6 5,2 8,2 5 3 11 6 ZW 1027,4 - 0 0,0
17.12.2017 12:00:00 1,0 0,3 1,4 5,1 8,1 4 2 10 5 ZW 1027,8 - 0 0,0
17.12.2017 11:00:00 0,8 0,2 0,3 5,2 8,2 5 3 11 6 ZZW 1027,8 4,0 0 0,0
17.12.2017 10:00:00 0,6 0,0 0,2 5,2 8,2 5 3 10 6 WZW 1027,3 - 0 0,4
17.12.2017 09:00:00 0,8 0,1 0,3 5,2 8,2 4 2 15 8 WZW 1026,5 4,0 0 0,0
17.12.2017 08:00:00 0,8 0,1 0,2 5,3 8,2 6 3 12 6 ZW 1025,7 4,0 0 0,0
17.12.2017 07:00:00 0,6 0,0 0,1 5,4 8,2 3 2 10 5 WZW 1025,5 - 0 0,0
17.12.2017 06:00:00 0,6 0,2 0,0 5,4 8,2 6 4 13 7 ZZW 1025,0 6 0 0,0
17.12.2017 05:00:00 0,4 -0,5 -0,9 5,4 8,1 2 1 10 5 Z 1024,8 - 0 0,0
17.12.2017 04:00:00 1,0 0,0 0,4 5,4 8,2 4 2 11 6 WZW 1024,8 - 0 0,0
17.12.2017 03:00:00 1,0 0,1 0,2 5,4 8,2 4 2 11 6 ZW 1024,6 - 0 0,0
17.12.2017 02:00:00 1,1 0,4 0,6 5,4 8,2 3 2 11 6 WZW 1024,1 - 0 0,0
17.12.2017 01:00:00 1,2 0,5 0,8 5,5 8,2 4 2 7 4 Z 1023,9 - 0 0,0
17.12.2017 00:00:00 1,3 0,6 0,8 5,5 8,2 3 1 7 4 ZW 1024,1 - 0 0,0
16.12.2017 23:00:00 1,7 1,0 1,4 5,5 8,2 4 2 8 5 ZZW 1023,3 - 0 0,0
16.12.2017 22:00:00 1,6 0,9 1,4 5,5 8,2 5 3 13 7 W 1022,9 - 0 0,2
16.12.2017 21:00:00 1,5 0,9 1,4 5,5 8,2 4 2 10 5 WZW 1022,3 - 0 0,0
16.12.2017 20:00:00 1,6 0,7 1,2 5,5 8,2 5 3 21 11 WNW 1021,6 - 0 0,6
16.12.2017 19:00:00 2,6 1,3 1,8 5,5 8,1 4 2 10 6 ZW 1020,7 - 0 0,0
16.12.2017 18:00:00 2,8 1,2 1,9 5,5 8,2 3 1 13 7 WZW 1019,6 - 0 0,0
16.12.2017 17:00:00 2,8 1,0 2,0 5,5 8,2 5 3 18 10 WNW 1018,7 6 0 0,0
16.12.2017 16:00:00 3,5 0,9 3,7 5,5 8,2 4 2 15 8 ZW 1017,9 - 0 0,0
16.12.2017 15:00:00 3,7 1,1 3,9 5,4 8,2 6 4 14 8 W 1017,0 6 0 0,0
16.12.2017 14:00:00 3,9 1,1 3,9 5,4 8,2 4 2 9 5 WZW 1016,5 - 2 0,0
16.12.2017 13:00:00 3,4 1,9 3,3 5,4 8,2 3 2 10 6 WZW 1016,1 - 0 0,0
16.12.2017 12:00:00 2,6 1,7 2,5 5,4 8,2 4 2 10 5 ZW 1015,6 4,0 0 0,0
16.12.2017 11:00:00 2,3 1,6 2,3 5,4 8,2 5 3 15 8 WZW 1015,0 4,0 0 0,0
16.12.2017 10:00:00 2,1 1,4 1,8 5,5 8,2 4 2 12 7 WZW 1013,6 4,0 0 0,2
16.12.2017 09:00:00 2,1 1,2 1,8 5,5 8,2 6 4 14 8 WZW 1012,4 6 0 0,0
16.12.2017 08:00:00 2,0 1,3 1,8 5,5 8,2 8 5 15 8 ZW 1011,2 - 0 0,0
16.12.2017 07:00:00 2,0 1,6 1,7 5,6 8,2 3 2 9 5 W 1010,1 10 0 0,0
16.12.2017 06:00:00 1,7 1,4 1,5 5,6 8,2 4 2 10 6 ZZW 1009,1 10 0 0,0
16.12.2017 05:00:00 1,4 1,1 0,5 5,6 8,2 4 2 18 10 ZW 1008,2 - 0 0,8
16.12.2017 04:00:00 1,5 0,9 0,8 5,6 8,2 6 3 19 10 W 1007,1 - 0 1,2
16.12.2017 03:00:00 2,4 1,8 2,2 5,6 8,2 5 3 11 6 WZW 1006,2 - 0 0,0
16.12.2017 02:00:00 2,3 1,6 2,2 5,7 8,2 6 3 13 7 ZW 1004,9 - 0 0,0
16.12.2017 01:00:00 2,5 1,8 2,4 5,6 8,2 6 3 14 8 WZW 1004,2 - 0 1,0
16.12.2017 00:00:00 2,7 1,7 2,3 5,7 8,2 4 2 19 10 ZZW 1003,7 - 0 0,0
15.12.2017 23:00:00 3,0 2,0 2,4 5,7 8,2 6 3 19 10 ZZW 1003,0 - 0 0,0
15.12.2017 22:00:00 3,4 2,1 2,8 5,7 8,2 9 5 37 20 ZZW 1002,5 - 0 0,2
15.12.2017 21:00:00 4,1 1,0 3,1 5,7 8,2 8 4 25 13 ZZW 1001,8 - 0 0,0
15.12.2017 20:00:00 3,8 1,2 2,8 5,7 8,2 7 4 21 12 ZZW 1001,4 - 0 0,0
15.12.2017 19:00:00 3,9 1,1 1,9 5,7 8,2 4 2 17 9 Z 1001,3 - 0 0,0
15.12.2017 18:00:00 4,4 1,1 2,9 5,7 8,2 7 4 28 15 ZZW 1001,1 - 0 0,0
15.12.2017 17:00:00 4,9 1,4 3,4 5,6 8,2 11 6 32 18 ZZW 1001,3 15 0 0,0
15.12.2017 16:00:00 5,8 1,1 5,7 5,6 8,2 9 5 29 16 ZZW 1001,0 25 0 0,0
15.12.2017 15:00:00 5,7 1,8 6,8 5,6 8,2 13 7 34 18 ZZW 1001,4 25 52 0,0
15.12.2017 14:00:00 5,1 2,1 5,7 5,6 8,2 19 10 42 23 ZZW 1002,0 25 13 0,0
15.12.2017 13:00:00 5,1 1,9 5,8 5,6 8,2 14 7 44 24 ZZW 1002,5 20 4 0,0
15.12.2017 12:00:00 4,8 2,2 4,4 5,6 8,2 14 8 48 26 ZZW 1002,9 20 18 0,0
15.12.2017 11:00:00 4,6 2,0 4,0 5,6 8,2 22 12 42 23 ZZW 1003,3 15 36 0,0
15.12.2017 10:00:00 3,7 2,1 2,8 5,6 8,2 13 7 33 18 ZZW 1003,1 12 4 0,0
15.12.2017 09:00:00 3,3 1,7 2,8 5,6 8,2 19 11 42 23 ZZW 1002,4 12 0 0,2
15.12.2017 08:00:00 4,2 0,7 3,7 5,7 8,2 18 10 40 22 ZZW 1001,5 12 0 0,0
15.12.2017 07:00:00 4,1 0,6 3,1 5,7 8,2 14 7 40 22 ZZW 1001,2 12 0 0,0
15.12.2017 06:00:00 3,7 0,4 2,6 5,7 8,2 19 11 37 20 ZZW 1001,3 15 0 0,0
15.12.2017 05:00:00 3,7 0,9 3,1 5,7 8,2 18 10 40 22 ZZW 1001,4 - 0 0,0
15.12.2017 04:00:00 3,9 1,3 3,1 5,7 8,2 18 10 39 21 ZZW 1001,6 - 0 0,0
15.12.2017 03:00:00 4,1 1,6 3,2 5,8 8,3 13 7 40 22 ZW 1001,4 - 0 0,0
15.12.2017 02:00:00 4,3 2,5 3,5 5,7 8,2 16 9 41 22 ZZW 1000,3 - 0 0,0
15.12.2017 01:00:00 4,2 2,9 3,6 5,7 8,3 16 9 39 21 ZZW 999,4 - 0 0,0
15.12.2017 00:00:00 4,1 3,1 3,4 5,7 8,3 11 6 54 29 ZZW 998,8 - 0 2,8
14.12.2017 23:00:00 5,4 4,7 5,1 5,7 8,3 13 7 40 22 ZW 998,1 - 0 2,8
14.12.2017 22:00:00 5,8 4,3 5,1 5,7 8,3 21 11 45 24 ZW 998,4 - 0 0,4
14.12.2017 21:00:00 5,7 4,7 5,0 5,7 8,3 16 9 46 25 ZW 999,2 - 0 1,7
14.12.2017 20:00:00 5,5 4,5 5,0 5,7 8,3 15 8 30 16 ZZW 999,7 - 0 1,2
14.12.2017 19:00:00 5,9 5,0 5,5 5,6 8,3 16 8 35 19 ZZW 999,5 - 0 2,2
14.12.2017 18:00:00 6,1 4,9 5,5 5,6 8,3 14 8 35 19 ZW 1000,7 - 0 2,4
14.12.2017 17:00:00 6,1 4,7 5,2 5,6 8,4 12 6 31 17 ZZW 1001,3 10 0 0,0
14.12.2017 16:00:00 6,0 4,5 5,1 5,6 8,4 18 10 39 21 ZW 1003,1 10 0 2,2
14.12.2017 15:00:00 6,4 3,4 5,2 5,5 8,3 13 7 37 20 ZZW 1003,6 15 0 0,0
14.12.2017 14:00:00 6,6 1,7 6,7 5,5 8,3 18 10 37 20 ZZW 1004,7 18 0 0,0
14.12.2017 13:00:00 6,4 1,5 6,6 5,5 8,4 21 11 45 25 ZZW 1006,5 18 0 0,0
14.12.2017 12:00:00 6,5 2,8 6,6 5,5 8,4 21 11 42 23 ZZW 1007,4 - 0 0,0
14.12.2017 11:00:00 6,2 3,7 5,1 5,4 8,4 15 8 31 17 ZZW 1008,2 15 0 0,0
14.12.2017 10:00:00 5,9 3,6 4,7 5,4 8,4 15 8 28 15 ZW 1008,2 12 0 0,0
14.12.2017 09:00:00 5,7 3,4 4,3 5,4 8,4 15 8 29 16 ZW 1008,0 12 0 0,0
14.12.2017 08:00:00 4,9 3,2 2,7 5,4 8,4 11 6 20 11 ZZW 1008,3 10 0 0,0
14.12.2017 07:00:00 4,8 2,8 3,2 5,3 8,4 9 5 33 18 ZW 1008,3 4,0 0 0,2
14.12.2017 06:00:00 3,8 2,2 3,2 5,2 8,4 18 10 58 31 W 1008,3 1,5 0 2,8
14.12.2017 05:00:00 7,7 4,5 6,1 5,2 8,4 23 13 59 32 ZZW 1005,2 - 0 0,0
14.12.2017 04:00:00 7,7 4,8 6,4 5,2 8,4 27 15 77 41 ZZW 1005,2 - 0 0,2
14.12.2017 03:00:00 8,2 5,0 6,6 5,2 8,4 33 18 66 35 ZZW 1004,2 - 0 0,0
14.12.2017 02:00:00 8,1 5,0 6,4 5,1 8,4 31 17 78 42 ZZW 1003,4 - 0 0,8
14.12.2017 01:00:00 7,9 5,0 6,4 5,0 8,4 34 18 80 43 ZZW 1002,7 - 0 0,6
14.12.2017 00:00:00 8,1 4,9 6,3 5,0 8,4 33 18 74 40 ZZW 1002,6 - 0 0,0
13.12.2017 23:00:00 7,6 4,7 5,4 5,0 8,4 26 14 58 32 ZZW 1002,1 - 0 0,0
13.12.2017 22:00:00 6,1 4,3 5,0 4,9 8,4 21 11 58 31 ZZW 1003,0 - 0 0,2
13.12.2017 21:00:00 6,6 3,4 4,9 4,9 8,4 22 12 55 30 ZZW 1003,4 - 0 0,2
13.12.2017 20:00:00 5,9 3,7 4,6 4,9 8,4 16 8 43 23 ZZW 1005,8 - 0 0,8
13.12.2017 19:00:00 6,4 2,3 4,7 4,9 8,4 18 10 48 26 ZZW 1007,9 - 0 0,0
13.12.2017 18:00:00 6,1 1,6 5,2 4,9 8,4 14 8 49 26 ZZW 1009,3 - 0 0,0
13.12.2017 17:00:00 5,6 1,7 4,6 4,9 8,4 21 12 46 25 ZZW 1010,4 10 0 0,0
13.12.2017 16:00:00 4,8 1,1 3,9 4,9 8,4 20 11 44 24 ZZW 1011,5 15 0 0,0
13.12.2017 15:00:00 4,3 -0,1 2,4 4,9 8,4 16 8 55 30 ZZW 1011,6 15 0 0,2
13.12.2017 14:00:00 5,7 -3,1 5,5 4,9 8,4 20 11 51 28 ZZW 1012,1 15 0 0,0
13.12.2017 13:00:00 6,1 -3,3 6,0 4,9 8,4 18 10 46 25 ZZW 1013,3 15 0 0,0
13.12.2017 12:00:00 5,7 -3,9 6,0 5,0 8,4 16 9 40 21 ZZW 1014,4 - 2 0,0
13.12.2017 11:00:00 4,7 -2,9 2,8 5,0 8,4 9 5 22 12 ZZW 1016,2 - 31 0,0
13.12.2017 10:00:00 3,4 -3,6 0,0 5,1 8,4 9 5 18 10 ZZW 1017,1 - 22 0,0
13.12.2017 09:00:00 1,4 -3,1 -1,9 5,2 8,4 3 1 18 10 Z 1018,4 - 0 0,0
13.12.2017 08:00:00 0,5 -2,9 -5,0 5,3 8,4 3 1 7 4 ZZW 1019,2 15 0 0,0
13.12.2017 07:00:00 -0,5 -3,0 -5,3 5,3 8,4 3 1 6 3 ZO 1019,6 - 0 0,0
13.12.2017 06:00:00 0,0 -2,7 -4,9 5,4 8,4 2 1 5 3 ZZO 1019,7 15 0 0,0
13.12.2017 05:00:00 0,0 -2,4 -4,2 5,5 8,4 2 1 12 6 Z 1020,2 - 0 0,0
13.12.2017 04:00:00 0,1 -2,3 -5,4 5,5 8,4 4 2 11 6 ZZW 1020,8 - 0 0,0
13.12.2017 03:00:00 -0,9 -2,3 -5,3 5,6 8,4 0 0 4 2 N 1021,1 - 0 0,0
13.12.2017 02:00:00 -0,2 -1,6 -4,6 5,7 8,4 0 0 4 2 N 1021,0 - 0 0,0
13.12.2017 01:00:00 0,8 -1,4 -2,7 5,7 8,4 0 0 8 4 N 1021,2 - 0 0,0
13.12.2017 00:00:00 0,4 -1,0 -2,9 5,7 8,4 0 0 3 2 N 1021,1 - 0 0,0
12.12.2017 23:00:00 0,8 -0,7 -3,6 5,8 8,4 0 0 4 2 N 1020,4 - 0 0,0
12.12.2017 22:00:00 1,4 -0,8 -1,9 5,8 8,4 0 0 7 4 N 1020,5 - 0 0,0
12.12.2017 21:00:00 2,4 -0,7 1,0 5,9 8,4 4 2 12 6 Z 1020,3 - 0 0,0
12.12.2017 20:00:00 2,6 -0,3 -0,6 5,9 8,4 4 2 13 7 ZZW 1020,0 - 0 0,0
12.12.2017 19:00:00 2,2 -0,9 -0,6 5,9 8,4 0 0 8 4 N 1019,2 - 0 0,0
12.12.2017 18:00:00 2,4 -0,9 -0,7 5,9 8,4 3 2 8 4 Z 1018,6 - 0 0,0
12.12.2017 17:00:00 3,8 -1,8 2,4 5,9 8,4 6 3 12 6 ZZW 1017,5 20 24 0,0
12.12.2017 16:00:00 4,9 -1,8 4,5 5,8 8,4 7 4 17 9 ZZW 1016,5 20 35 0,0
12.12.2017 15:00:00 5,0 -1,5 5,6 5,8 8,4 10 5 24 13 ZW 1015,6 20 51 0,0
12.12.2017 14:00:00 5,1 -0,9 4,7 5,8 8,4 10 5 19 10 ZZW 1015,0 20 29 0,0
12.12.2017 13:00:00 4,3 0,3 4,6 5,8 8,4 8 5 19 11 ZW 1014,5 20 4 0,0
12.12.2017 12:00:00 3,3 1,0 3,3 5,8 8,4 9 5 21 11 ZW 1014,4 12 0 0,0
12.12.2017 11:00:00 3,0 1,2 2,4 5,9 8,4 11 6 20 11 ZZW 1013,8 10 0 0,0
12.12.2017 10:00:00 2,5 1,3 2,3 5,9 8,4 8 4 21 12 ZW 1013,1 10 0 0,0
12.12.2017 09:00:00 2,7 0,3 2,0 6,0 8,4 10 5 18 10 ZZW 1011,8 12 0 0,0
12.12.2017 08:00:00 2,6 -0,5 1,7 6,0 8,4 8 4 16 9 ZZW 1010,4 10 0 0,0
12.12.2017 07:00:00 2,7 -0,9 1,7 6,0 8,4 6 4 15 8 ZW 1009,1 10 0 0,0
12.12.2017 06:00:00 2,5 -0,9 1,7 6,0 8,4 6 3 15 8 ZW 1007,5 10 0 0,0

tt = temperatuur
td = dauwpunt
tt 5cm = temperatuur 5cm
tt -20cm = temperatuur -20cm
tt -100cm = temperatuur -100cm
ff = windsnelheid
fx = windstoten
dd = windrichting
ppp = luchtdruk
vv = zicht
sd = Zonneschijnduur
rr = neerslag

Weerstations in de omgeving